"Pseudo-MPEC" for C167NN5

Created 2025 Oct 27 10:35:04 UT using Find_Orb

Click here for an explanation of pseudo-MPECs

 
 Astrometry: 
     C167NN5* C2025 10 05.47086504 15 47.768+01 27 30.42   ~A5CK 22.49GVNEOCPV00
     C167NN5  C2025 10 05.47645604 15 48.118+01 27 29.20   ~A5CK 22.79GVNEOCPV00
     C167NN5  C2025 10 05.48203904 15 48.438+01 27 27.76   ~A5CK 21.75GVNEOCPV00
     C167NN5  C2025 10 05.48762504 15 48.827+01 27 26.60   ~A5CK 22.95GVNEOCPV00
     C167NN5 mC2025 10 05.50634304 15 49.936+01 27 22.57   ~A5CZ 22.39GVNEOCPV00
     C167NN5 mC2025 10 05.50833504 15 50.058+01 27 22.25   ~A5CZ 22.24GVNEOCPV00
     C167NN5 mC2025 10 05.51035104 15 50.184+01 27 21.74   ~A5CZ 23.02GVNEOCPV00
     C167NN5 mC2025 10 05.51179404 15 50.267+01 27 21.38   ~A5CZ 22.29GVNEOCPV00
     C167NN5 mC2025 10 06.35532604 16 44.970+01 24 15.10   ~A69K       VNEOCPV00
     C167NN5 mC2025 10 06.35861104 16 45.170+01 24 13.90   ~A69K       VNEOCPV00

Station data:
(V00) Kitt Peak-Bok  (N31.963125 W111.600190)  US/Arizona. Measurers T.
   Beuden, V. F. Carvajal, D. Fay, J. B. Fazekas, D. C. Fuls, A. R. Gibbs, A.
   D. Grauer, H. Gröller, J. K. Hogan, R. A. Kowalski, S. M. Larson, G. J.
   Leonard, D. Rankin, R. L. Seaman, F. C. Shelly, K. W. Wierzchoś. 2.25-m
   reflector + 4x4K mosaic CCD.

Orbital elements:  C167NN5
   Perihelion 2025 Dec 27.188077 +/- 50.2 TT =  4:30:49.8 (JD 2461036.688077)
Epoch 2025 Oct  6.0 TT = JDT 2460954.5   Earth MOID: 0.0224   Ve: 0.0539
M 354.083030760 +/- 21              (J2000 ecliptic)             AutoNEOCP
n   0.071993036 +/- 0.134           Peri.   89.726848 +/- 100
a   5.722806422 +/- 7.08            Node    60.960771 +/- 24
e   0.91512238 +/- 0.226            Incl.   20.718853 +/- 4.1
P  13.69032                H 20.82  G  0.15   U 11.4  SR
q 0.485738160 +/- 0.423    Q 10.95987468 +/- 21.1
From 10 observations 2025 Oct. 5-6 (21.3 hr); mean residual 0".17
Residuals in arcseconds: 
251005 V00  .30-  .08+    251005 V00  .07+  .02-    251006 V00  .00   .23+    
251005 V00  .11-  .08+    251005 V00  .09+  .09+    251006 V00  .01-  .23-    
251005 V00  .37-  .14-    251005 V00  .15+  .02+    
251005 V00  .41+  .08-    251005 V00  .08+  .02-    

Ephemerides (geocentric):
Date (UTC) HH   RA             Dec           delta  r     elong  mag " sig PA
---- --------  ------------   ------------  ------ ------ -----  --- --------
2025 10 27 11  04 43 42.542   -00 30 59.69  .39296 1.3154 138.9 20.7 5374  75
2025 10 27 12  04 43 47.058   -00 31 19.88  .39217 1.3148 138.9 20.7 5399  75
2025 10 27 13  04 43 51.587   -00 31 40.11  .39139 1.3141 138.9 20.7 5425  75
2025 10 27 14  04 43 56.127   -00 32 00.39  .39060 1.3135 138.9 20.7 5451  75
2025 10 27 15  04 44 00.679   -00 32 20.72  .38982 1.3128 138.9 20.7 5476  75
2025 10 27 16  04 44 05.243   -00 32 41.08  .38903 1.3122 138.9 20.7 5502  75
2025 10 27 17  04 44 09.819   -00 33 01.50  .38825 1.3116 138.9 20.6 5528  75
2025 10 27 18  04 44 14.408   -00 33 21.96  .38746 1.3109 139.0 20.6 5554  75
2025 10 27 19  04 44 19.008   -00 33 42.47  .38668 1.3103 139.0 20.6 5580  75
2025 10 27 20  04 44 23.621   -00 34 03.02  .38590 1.3096 139.0 20.6 5607  75
2025 10 27 21  04 44 28.246   -00 34 23.62  .38511 1.3090 139.0 20.6 5633  75
2025 10 27 22  04 44 32.884   -00 34 44.26  .38433 1.3083 139.0 20.6 5660  75
2025 10 27 23  04 44 37.535   -00 35 04.95  .38355 1.3077 139.0 20.6 5686  75
2025 10 28 00  04 44 42.198   -00 35 25.69  .38276 1.3070 139.0 20.6 5713  75
2025 10 28 01  04 44 46.874   -00 35 46.48  .38198 1.3064 139.1 20.6 5740  75
2025 10 28 02  04 44 51.562   -00 36 07.32  .38120 1.3057 139.1 20.6 5767  75
2025 10 28 03  04 44 56.264   -00 36 28.20  .38041 1.3051 139.1 20.6 5794  75
2025 10 28 04  04 45 00.978   -00 36 49.13  .37963 1.3045 139.1 20.6 5821  75
2025 10 28 05  04 45 05.706   -00 37 10.11  .37885 1.3038 139.1 20.6 5848  75
2025 10 28 06  04 45 10.447   -00 37 31.14  .37807 1.3032 139.1 20.6 5876  75
2025 10 28 07  04 45 15.201   -00 37 52.21  .37729 1.3025 139.1 20.6 5903  75
2025 10 28 08  04 45 19.968   -00 38 13.34  .37650 1.3019 139.1 20.6 5931  75
2025 10 28 09  04 45 24.749   -00 38 34.52  .37572 1.3012 139.2 20.6 5959  75
2025 10 28 10  04 45 29.544   -00 38 55.74  .37494 1.3006 139.2 20.6 5986  75
2025 10 28 11  04 45 34.352   -00 39 17.02  .37416 1.2999 139.2 20.6 6014  75
2025 10 28 12  04 45 39.174   -00 39 38.35  .37338 1.2993 139.2 20.5 6043  75
2025 10 28 13  04 45 44.009   -00 39 59.72  .37260 1.2986 139.2 20.5 6071  75
2025 10 28 14  04 45 48.859   -00 40 21.15  .37182 1.2980 139.2 20.5 6099  75
2025 10 28 15  04 45 53.722   -00 40 42.63  .37104 1.2973 139.2 20.5 6128  75
2025 10 28 16  04 45 58.600   -00 41 04.16  .37026 1.2967 139.2 20.5 6156  75
2025 10 28 17  04 46 03.492   -00 41 25.75  .36948 1.2961 139.3 20.5 6185  75
2025 10 28 18  04 46 08.398   -00 41 47.38  .36870 1.2954 139.3 20.5 6214  75
2025 10 28 19  04 46 13.318   -00 42 09.07  .36792 1.2948 139.3 20.5 6243  75
2025 10 28 20  04 46 18.253   -00 42 30.81  .36714 1.2941 139.3 20.5 6272  75
2025 10 28 21  04 46 23.203   -00 42 52.61  .36636 1.2935 139.3 20.5 6301  75
2025 10 28 22  04 46 28.167   -00 43 14.45  .36558 1.2928 139.3 20.5 6331  75
2025 10 28 23  04 46 33.146   -00 43 36.35  .36480 1.2922 139.3 20.5 6360  75
2025 10 29 00  04 46 38.140   -00 43 58.31  .36402 1.2915 139.3 20.5 6390  75
2025 10 29 01  04 46 43.149   -00 44 20.32  .36324 1.2909 139.4 20.5 6420  75
2025 10 29 02  04 46 48.173   -00 44 42.38  .36246 1.2902 139.4 20.5 6450  75
2025 10 29 03  04 46 53.212   -00 45 04.50  .36168 1.2896 139.4 20.5 6480  75
2025 10 29 04  04 46 58.267   -00 45 26.68  .36091 1.2889 139.4 20.5 6510  75
2025 10 29 05  04 47 03.337   -00 45 48.91  .36013 1.2883 139.4 20.5 6540  75
2025 10 29 06  04 47 08.422   -00 46 11.20  .35935 1.2876 139.4 20.4 6571  75
2025 10 29 07  04 47 13.524   -00 46 33.54  .35857 1.2870 139.4 20.4 6601  75
2025 10 29 08  04 47 18.640   -00 46 55.94  .35780 1.2863 139.4 20.4 6632  75
2025 10 29 09  04 47 23.773   -00 47 18.40  .35702 1.2857 139.4 20.4 6663  75
2025 10 29 10  04 47 28.922   -00 47 40.91  .35624 1.2850 139.5 20.4 6694  75